Regional Weather Roundup
Issued by NWS

Home | Current Version | Previous Version | Text Only | Print | Product List | Glossary Off
Versions: 1 2 3 4 5 6 7 8 9 10 11 12 13 14 15 16 17 18 19 20 21 22 23 24 25 26 27 28 29 30 31 32 33 34 35 36 37 38 39 40 41 42 43 44 45 46 47 48 49 50

000
ASUS45 KCYS 231610
RWRWY

WYOMING REGIONAL WEATHER ROUNDUP
NATIONAL WEATHER SERVICE CHEYENNE WY
1000 AM MDT SAT MAY 23 2015

NOTE:  "FAIR" INDICATES FEW OR NO CLOUDS BELOW 12,000 FEET
WITH NO SIGNIFICANT WEATHER AND/OR OBSTRUCTIONS TO VISIBILITY.

WYZ001-231700-
YELLOWSTONE NATIONAL PARK

CITY           SKY/WX    TMP DP  RH WIND       PRES   REMARKS
LK YELLOWSTONE   N/A     47  36  65 MISG      30.03S
W YELLOWSTONE  NOT AVBL

$$
WYZ002>013-054>058-071-098>099-231700-
NORTHERN WYOMING

CITY           SKY/WX    TMP DP  RH WIND       PRES   REMARKS
JACKSON        PTSUNNY   48  45  87 CALM      29.97S
CODY           CLOUDY    48  46  93 N12       29.98R
GREYBULL       CLOUDY    56  50  80 NW7       29.94R
WORLAND        CLOUDY    53  49  86 CALM      29.95S
SHERIDAN       CLOUDY    50  45  83 CALM      30.00R
BUFFALO        CLOUDY    48  45  89 SE6       30.01R
GILLETTE       CLOUDY    49  43  80 S14       30.01R
HULETT         CLOUDY    52  41  66 CALM      30.03S
NEWCASTLE      CLOUDY    50  43  76 SE15      30.04S

$$
WYZ014>020-022>026-101>103-231700-
CENTRAL WYOMING

CITY           SKY/WX    TMP DP  RH WIND       PRES   REMARKS
BIG PINEY      CLOUDY    43  40  89 S5        30.00S
PINEDALE       CLOUDY    43  41  93 S13       30.01S
DUBOIS         LGT RAIN  37  36  93 SE9       30.00R WCI  31
LANDER         PTSUNNY   50  43  77 NW10      29.94F
RIVERTON       PTSUNNY   48  45  89 W9        29.97
CASPER         CLOUDY    46  43  89 E5        30.00S
DOUGLAS        PTSUNNY   52  47  83 SE10      30.01S

$$
WYZ021-027>030-104>119-231700-
SOUTHERN WYOMING

CITY           SKY/WX    TMP DP  RH WIND       PRES   REMARKS
EVANSTON       CLOUDY    45  38  76 SW5       29.98R
KEMMERER       CLOUDY    45  37  76 E5        30.00R
FORT BRIDGER   PTSUNNY   48  43  81 N3        30.01S
ROCK SPRINGS   FAIR      50  39  66 VRB5      29.99R
DIXON          FAIR      55  39  55 W8        30.01S
RAWLINS        FAIR      51  40  65 SE9       30.00F
SARATOGA       FAIR      52  37  58 MISG      30.00F
LARAMIE        PTSUNNY   48  41  76 SE16      30.01F
CHEYENNE       CLOUDY    50  43  77 S13       30.03S
TORRINGTON     CLOUDY    53  49  86 SE6       30.01F
PINE BLUFFS    CLOUDY    52  46  82 SE6       30.02F

$$


USA.gov is the U.S. government's official web portal to all federal, state and local government web resources and services.